SCP
0 0 0 0 0 0 0 0 0 0 0 0 0 0 0 0 0 0 0 0 0 0 0 0 0 0 0 0 0 0 0 0 0 0 0 0 0 0 0 0 0 0 0 0
0 0 0 0 0 0 0 0 0 0 0 0 0 0 0 0 0 0 0 0 0 0 0 0 0 0 0 0 0 0 0 0 0 0 0 0 0 0 0 0 0 0 0 0
0 0 0 0 0 0 0 0 0 0 0 0 0 0 0 0 0 0 0 0 0 0 0 0 0 0 0 0 0 0 0 0 0 0 0 0 0 0 0 0 0 0 0 0
0 0 0 0 0 0 0 0 0 0 0 0 0 0 0 0 0 0 0 0 0 0 0 0 0 0 0 0 0 0 0 0 0 0 0 0 0 0 0 0 0 0 0 0
0 0 0 0 0 0 0 0 0 0 0 0 0 0 0 0 0 0 0 0 0 0 0 0 0 0 0 0 0 0 0 0 0 0 0 0 0 0 0 0 0 0 0 0
0 0 0 0 0 0 0 0 0 0 0 0 0 0 0 0 0 0 0 0 0 0 0 0 0 0 0 0 0 0 0 0 0 0 0 0 0 0 0 0 0 0 0 0
0 0 0 0 0 0 0 0 0 0 0 0 0 0 0 0 0 0 0 0 0 0 0 0 0 0 0 0 0 0 0 0 0 0 0 0 0 0 0 0 0 0 0 0
0 0 0 0 0 0 0 0 0 0 0 0 0 0 0 0 0 0 0 0 0 0 0 0 0 0 0 0 0 0 0 0 0 0 0 0 0 0 0 0 0 0 0 0
0 0 0 0 0 0 0 0 0 0 0 0 0 0 0 0 0 0 0 0 0 0 0 0 0 0 0 0 0 0 0 0 0 0 0 0 0 0 0 0 0 0 0 0
0 0 0 0 0 0 0 0 0 0 0 0 0 0 0 0 -0 0 0 0 0 0 0 0 0 0 0 0 0 0 0 0 0 0 0 0 0 0 0 0 0 0 0 0
0 0 0 0 0 0 0 0 0 0 0 0 0 0 0 0 -0 -0 0 0 0 0 0 0 0 0 0 0 0 0 0 0 0 0 0 0 0 0 0 0 0 0 0 0
0 0 0 0 0 0 0 0 0 0 0 0 0 0 0 0 0 0 0 0 0 0 0 0 0 0 0 0 0 0 0 0 0 0 0 0 0 0 0 0 0 0 0 0
0 0 0 0 0 0 0 0 0 0 0 0 0 0 0 0 0 0 0 0 0 0 0 0 0 0 0 0 0 0 0 0 0 0 0 0 0 0 0 0 0 0 0 0
0 0 0 0 0 0 0 0 0 0 0 0 0 0 0 0 0 0 0 0 0 0 0 0 0 0 0 0 0 0 0 0 0 0 0 0 0 0 0 0 0 0 0 0
0 0 0 0 0 0 0 0 0 0 0 0 0 0 0 0 0 0 0 0 0 0 0 0 0 0 0 0 0 0 0 0 0 0 0 0 0 0 0 0 0 0 0 0
0 0 0 0 0 0 0 0 0 0 0 0 0 0 0 0 0 0 0 0 0 0 0 0 0 0 0 0 0 0 0 0 0 0 0 0 0 0 0 0 0 0 0 0
0 0 0 0 0 0 0 0 0 0 0 0 0 0 0 0 0 0 0 0 0 -0 -0 0 0 0 0 0 0 0 0 0 0 0 0 0 0 0 0 0 0 0 0 0
0 0 0 0 0 0 0 0 0 0 0 0 0 0 0 0 0 0 0 0 -0 -0 0 0 0 0 0 0 0 0 0 0 0 0 0 0 0 0 0 0 0 0 0 0
0 0 0 0 0 0 0 0 0 0 0 0 -0 0 0 0 0 0 0 0 0 0 0 0 0 0 0 0 0 0 0 0 0 0 0 0 0 0 0 0 0 0 0 0
0 0 0 0 0 0 0 0 0 0 0 -0 -0 -0 -0 0 0 0 0 0 0 0 0 0 0 0 0 0 0 0 0 0 0 0 0 0 0 0 0 0 0 0 0 0
0 0 0 0 0 0 0 0 0 0 0 0 0 0 0 0 0 0 0 0 0 0 0 0 0 0 0 0 0 0 0 0 0 0 0 0 0 0 0 0 0 0 0 0
0 0 0 0 0 0 0 0 0 0 0 0 0 0 0 0 0 0 0 0 0 0 0 0 0 0 0 0 0 0 0 0 0 0 0 0 0 0 0 0 0 0 0 0
0 0 0 0 0 0 0 0 0 0 0 0 0 0 0 0 0 0 0 0 0 0 0 0 0 0 0 0 0 0 0 0 0 0 0 0 0 0 0 0 0 0 0 0
0 0 0 0 0 0 0 0 0 0 0 0 0 0 0 0 0 0 0 0 0 0 0 0 0 0 0 0 0 0 0 0 0 0 0 0 0 0 0 0 0 0 0 0
0 0 0 0 0 0 0 0 0 0 0 0 0 0 0 0 0 0 0 0 0 0 0 0 0 0 0 0 0 0 0 0 0 0 0 0 0 0 0 0 0 0 0 0
0 0 0 0 0 0 0 0 0 0 0 0 0 0 0 0 0 0 0 0 0 0 0 0 0 0 0 0 0 0 0 0 0 0 0 0 0 0 0 0 0 0 0 0
Wind_Speed
7 8 9 10 9 2 6 7 6 4 3 5 5 5 4 4 5 6 6 6 6 7 7 8 8 8 8 8 7 7 7 6 5 3 2 1 1 1 0 1 1 2 3 4
8 8 6 6 6 5 6 7 6 4 3 4 3 4 3 3 4 4 4 5 5 6 7 8 8 8 9 8 7 7 7 6 5 3 2 1 0 1 1 1 1 2 3 3
5 5 6 7 8 8 5 4 5 4 4 4 3 4 4 4 4 3 3 3 4 5 6 8 8 8 8 8 8 6 6 6 6 5 2 2 1 2 1 1 0 2 2 3
3 4 7 8 7 6 5 2 3 4 5 4 3 4 5 5 5 4 4 4 3 4 5 6 7 8 8 7 6 7 6 6 6 6 4 3 2 1 1 1 1 1 1 2
4 6 7 6 5 4 3 3 3 3 3 4 3 3 6 4 4 4 4 3 3 4 5 6 7 7 6 6 6 6 6 6 6 5 4 4 3 1 1 1 1 2 1 2
4 3 2 2 3 4 5 6 5 4 5 4 2 2 5 4 3 3 3 3 3 4 4 5 5 5 5 5 5 6 6 6 6 6 5 5 3 3 2 2 2 2 1 2
6 5 4 4 6 6 7 6 5 6 5 4 2 1 5 5 4 2 2 2 3 4 4 4 5 5 5 6 6 6 6 6 6 6 6 5 5 4 4 3 2 3 2 2
8 7 6 5 4 5 6 5 2 3 5 6 4 3 6 5 4 3 3 3 4 3 3 3 3 4 4 5 6 6 7 6 6 6 6 5 5 4 3 3 3 3 3 3
5 7 5 3 2 3 4 3 3 0 4 5 6 6 5 4 5 5 5 5 4 4 3 2 2 2 3 4 5 6 7 6 6 6 6 5 5 4 4 4 4 3 3 3
2 7 6 5 4 1 3 1 4 4 4 5 6 5 3 3 4 4 4 4 5 4 3 3 2 2 2 2 3 5 6 6 6 6 5 4 5 5 4 4 4 4 4 3
3 6 7 6 4 4 5 4 2 1 1 2 5 5 4 2 3 3 4 4 5 4 4 3 3 2 1 2 2 3 5 5 5 6 6 5 5 5 5 4 4 5 4 4
2 3 7 5 2 2 3 2 4 2 3 1 2 5 4 2 3 3 4 5 5 5 5 4 3 3 2 1 1 2 3 4 4 5 5 5 5 5 6 5 5 5 5 5
3 5 7 8 7 5 3 1 2 1 3 3 3 6 6 4 4 4 4 5 5 5 5 4 4 3 2 1 0 1 2 3 4 4 5 5 6 6 6 6 5 6 5 5
4 4 3 3 3 4 5 4 4 5 3 3 2 5 5 4 4 4 4 5 5 5 5 4 4 3 2 2 1 1 1 2 3 3 4 5 5 5 6 6 6 6 6 6
5 2 2 2 3 2 3 4 6 5 3 3 3 4 3 3 4 4 4 4 5 5 5 4 3 3 2 2 1 1 1 1 2 3 4 4 5 5 5 5 6 6 6 7
2 3 4 4 3 3 3 4 5 4 3 3 3 2 3 4 4 4 4 4 4 4 4 4 4 3 3 3 2 1 1 1 1 2 3 3 4 4 5 5 6 6 6 7
2 4 5 5 4 5 6 5 6 5 4 5 4 3 5 5 4 4 4 3 3 3 4 4 4 3 3 3 3 2 1 1 1 2 2 2 3 4 5 5 6 6 6 7
4 4 3 4 6 8 3 3 3 4 2 1 2 4 5 5 4 4 4 3 4 4 4 4 4 4 4 3 3 2 1 1 1 2 2 2 3 4 4 5 5 6 6 6
4 4 5 5 6 4 4 4 4 4 3 2 4 5 6 6 6 5 4 4 4 4 3 4 4 4 4 4 4 3 2 2 2 3 4 3 3 4 4 5 5 6 6 7
4 5 6 6 7 6 3 4 2 4 4 3 3 5 6 5 4 3 3 3 3 4 4 4 4 4 4 5 4 3 3 3 3 4 5 4 4 4 5 5 6 5 6 7
7 6 8 8 7 2 4 3 5 7 2 5 3 4 5 3 2 4 3 3 3 4 4 3 3 4 4 4 4 4 4 4 5 5 5 5 5 5 6 6 5 6 6 6
6 6 7 7 8 4 5 5 4 3 6 5 4 4 4 3 4 3 3 3 3 3 4 4 3 4 4 4 4 5 5 6 6 5 6 6 6 5 5 6 6 6 6 7
4 2 1 2 1 6 4 3 4 4 5 5 4 3 3 3 2 2 2 2 2 2 3 3 4 4 4 4 5 6 6 6 6 6 6 6 7 6 6 6 7 6 6 7
3 1 3 3 4 4 4 4 4 4 4 4 3 3 2 2 1 1 0 0 1 2 3 3 4 4 5 5 5 6 6 6 6 7 6 6 7 7 7 6 6 6 6 7
2 4 4 4 4 5 4 3 3 3 4 4 3 2 1 1 0 1 1 1 1 2 2 3 4 5 6 6 6 7 7 7 8 8 7 7 6 7 7 7 6 8 8 8
5 5 5 3 5 4 4 4 3 3 3 2 2 1 1 0 1 1 2 2 2 3 3 4 5 5 6 7 7 7 7 8 8 8 7 6 6 6 7 7 7 8 10 11
Wind_Direction
175 186 185 185 197 214 185 189 177 155 157 208 213 229 217 193 201 205 199 199 206 202 188 182 184 187 193 194 193 184 184 178 177 174 192 197 200 219 242 324 350 337 338 340
175 188 177 172 190 205 192 186 168 148 166 218 223 236 213 189 205 216 209 199 195 187 179 175 183 186 194 194 193 191 189 183 181 178 191 203 270 280 340 308 314 332 337 336
171 131 158 180 187 191 187 186 161 150 163 185 231 186 165 153 164 173 193 198 191 186 182 174 182 187 192 195 195 194 189 181 179 174 173 169 176 220 200 224 294 331 329 333
165 151 174 183 184 195 160 165 183 186 193 150 228 148 125 135 141 154 173 182 179 171 175 173 180 188 193 193 193 195 187 184 176 178 192 205 233 275 319 304 312 300 306 326
141 162 175 176 170 196 113 133 173 189 188 165 193 175 115 125 132 143 159 166 165 164 172 176 184 191 193 189 189 192 184 184 179 186 189 219 240 278 292 279 279 287 308 316
109 149 183 149 137 169 145 149 146 185 209 167 116 176 104 98 86 107 132 145 151 153 160 170 175 185 188 185 185 187 187 186 182 193 201 219 234 249 262 267 285 283 290 305
141 152 160 177 160 168 203 197 173 175 179 125 98 139 88 62 37 34 81 120 135 143 157 163 169 183 185 187 187 188 190 191 191 201 210 218 225 238 248 266 272 285 296 308
149 150 170 188 211 180 196 240 236 167 148 130 154 127 88 49 40 54 75 93 109 122 140 153 170 182 190 193 190 193 196 198 195 206 213 220 219 233 250 257 275 278 292 312
149 127 140 173 225 240 188 215 325 347 131 142 129 122 112 75 77 77 81 86 88 96 111 132 149 170 187 193 195 199 203 204 201 208 215 221 224 232 245 254 263 274 280 297
174 136 142 152 176 86 319 192 210 214 165 145 138 138 114 95 76 82 83 83 83 88 99 106 121 142 165 179 191 198 206 211 208 212 215 218 228 231 244 256 261 270 278 287
228 153 143 169 202 176 177 188 206 170 280 183 150 118 63 77 83 93 88 81 78 75 73 71 78 94 114 140 167 191 202 211 211 214 216 217 222 228 235 244 254 261 271 271
230 202 149 144 118 282 238 235 229 211 140 214 148 106 78 76 79 87 86 81 76 73 73 71 67 71 78 108 174 194 206 211 213 218 220 224 226 227 235 240 246 253 263 267
197 210 161 156 164 168 172 183 242 249 170 191 185 117 104 104 103 92 84 81 79 74 70 70 64 59 53 44 249 224 222 222 215 215 223 228 230 234 241 249 250 253 260 264
259 234 238 193 125 154 162 167 201 222 211 182 171 129 127 114 110 98 90 85 79 72 65 57 52 48 37 26 353 285 254 237 222 216 225 234 241 243 249 251 252 252 257 261
257 216 149 87 90 159 176 183 195 221 248 233 159 156 136 120 117 106 102 94 82 68 56 46 37 31 26 18 6 339 290 251 229 224 233 245 249 247 251 251 249 249 253 258
272 201 177 167 159 185 196 198 196 207 217 194 172 158 108 114 116 112 107 93 78 63 49 39 31 24 15 10 2 357 331 282 239 244 257 268 271 261 255 253 252 253 251 253
208 215 223 203 172 210 217 213 202 189 195 203 204 146 137 133 123 111 99 90 73 53 39 28 23 20 9 5 3 357 340 316 259 268 281 284 279 275 267 259 254 250 248 248
235 213 228 220 200 230 86 74 173 170 154 198 128 130 148 136 119 100 76 72 63 48 36 26 16 14 8 7 3 354 358 344 312 302 299 298 290 284 280 270 260 257 256 250
253 221 218 229 226 221 160 155 172 179 146 153 160 143 139 137 140 113 71 49 42 34 27 21 13 11 12 12 359 348 350 338 320 307 300 297 291 289 282 273 268 262 260 258
189 227 228 218 228 229 143 128 185 210 173 129 163 154 154 175 190 114 77 57 51 40 30 21 16 15 15 10 357 343 341 332 320 310 302 298 291 283 278 276 275 269 258 258
176 193 218 223 230 220 84 127 183 209 131 125 148 152 164 179 50 77 90 76 64 53 36 22 15 13 5 357 348 336 335 330 320 311 302 294 287 280 277 277 274 273 265 260
201 194 203 214 224 200 106 159 191 71 88 122 126 130 137 112 85 93 94 82 61 46 34 19 11 9 0 353 341 334 333 325 318 308 298 292 287 281 276 273 272 271 270 262
223 265 240 233 72 74 111 105 74 96 109 108 112 113 120 123 121 109 97 77 49 27 19 6 359 354 352 349 337 328 331 324 314 307 301 296 291 283 278 274 271 269 266 265
158 186 200 176 145 128 122 112 109 101 97 93 100 111 123 130 130 148 137 35 14 5 2 351 344 342 342 340 331 323 325 319 310 307 304 299 295 291 285 279 272 270 267 267
168 187 200 189 152 151 155 145 122 107 98 94 89 94 100 111 267 266 259 295 320 326 331 331 333 333 328 328 327 326 324 317 309 307 305 302 300 296 287 279 274 270 267 268
197 209 214 208 176 182 167 160 147 137 122 105 93 73 42 337 291 282 278 286 294 304 313 318 324 322 323 324 323 325 322 315 310 309 309 304 299 294 288 286 282 266 262 259